Location: Melbourne
(37.8170°S, 144.9670°E)
Time: 10:16:41
(UTC+10:00)

Explorer 11/Cluster Stage 4 - Visible Passes

Search period start: 23 September 2014 00:00
Search period end: 03 October 2014 00:00
Orbit: 468 x 1283 km, 28.8° (Epoch: 22 September)

Date Brightness Start Highest point End Pass type
(mag) Time Alt. Az. Time Alt. Az. Time Alt. Az.
23 Sep 8.9 03:08:28 18° NE 03:08:28 18° NE 03:10:02 10° NE visible
23 Sep 8.4 04:50:53 18° NW 04:52:24 19° NNW 04:56:28 10° NNE visible
24 Sep 9.1 03:02:17 14° NE 03:02:17 14° NE 03:03:14 10° NE visible
24 Sep 8.5 04:44:42 17° NW 04:45:27 17° NNW 04:49:19 10° N visible
25 Sep 9.4 02:56:10 11° NE 02:56:10 11° NE 02:56:22 10° NE visible
25 Sep 8.7 04:38:36 15° NNW 04:38:36 15° NNW 04:42:01 10° N visible
26 Sep 8.9 04:32:34 13° NNW 04:32:34 13° NNW 04:34:27 10° N visible
26 Sep 9.4 21:03:13 10° NNW 21:03:50 12° NNW 21:03:50 12° NNW visible
27 Sep 9.0 20:56:01 10° NNW 20:58:00 17° NNW 20:58:00 17° NNW visible
28 Sep 9.0 19:04:54 10° NNE 19:06:54 11° NE 19:08:59 10° NE visible
28 Sep 8.7 20:48:54 10° NW 20:52:06 23° NNW 20:52:06 23° NNW visible
29 Sep 8.9 18:56:51 10° N 18:59:51 13° NNE 19:03:05 10° ENE visible
29 Sep 8.4 20:41:51 10° NW 20:46:07 28° N 20:46:07 28° N visible
30 Sep 8.7 18:49:15 10° N 18:52:48 15° NNE 18:56:43 10° ENE visible
30 Sep 8.1 20:34:53 10° NW 20:40:03 33° N 20:40:03 33° N visible
01 Oct 7.9 20:27:58 10° NW 20:33:53 36° N 20:33:53 36° N visible
01 Oct 9.6 22:16:00 10° WNW 22:16:18 11° WNW 22:16:18 11° WNW visible
02 Oct 7.8 20:21:06 10° NW 20:27:05 37° NNE 20:27:38 37° NNE visible
02 Oct 9.4 22:09:12 10° WNW 22:10:02 14° WNW 22:10:02 14° WNW visible
